Location: Gajan
(43.0218°N, 1.1244°E)
Time: 15:46:29
(UTC+00:00)

Cosmos 1842 Rocket - Pass Details

Date: 22 April 2021
Orbit: 606 x 633 km, 82.5° (Epoch: 12 May)

Event Time Altitude Azimuth Distance (km) Brightness Sun altitude
Exits shadow 21:20:26 37° 49° (NE) 975 4.5 -24.3°
Drops below altitude 10° 21:23:32 10° 20° (NNE) 2,019 6.5 -24.7°
Sets 21:25:50 0° 14° (NNE) 2,934 7.5 -25.0°
